Terminal Aerodrome Forecast
Issued by NWS

Home | Current Version | Previous Version | Text Only | Print | Product List | Glossary On
Versions: 1 2 3 4 5 6 7 8 9 10 11 12 13 14
000
FTUS45 KSLC 270539
TAFENV
TAF
KENV 270539Z 2706/2806 32011KT P6SM VCSH SCT050 BKN100
     FM270800 33007KT P6SM SCT100
     FM271600 11007KT P6SM VCSH SCT070 BKN100
     FM280100 33011G16KT P6SM SCT070 BKN100
      AMD LTD TO CLD VIS AND WIND=

USA.gov is the U.S. government's official web portal to all federal, state and local government web resources and services.